SCP
0 0 0 0 0 0 0 0 0 0 -0 -0 -0 -0 -0 -0 -0 -0 0 0 -0 -0 -0 0 0 0 0 0 0 0 0 0 0 0 0 0 0 0 0 0 0 0 0 0 0 0 0
0 0 0 0 0 0 0 0 0 0 0 0 0 0 -0 -0 -0 0 0 0 -0 -0 0 0 0 0 0 0 0 0 0 0 0 0 0 0 0 0 0 0 0 0 0 0 0 0 0
0 0 0 0 0 0 0 0 0 0 0 0 0 0 -0 -0 -0 -0 0 0 -0 -0 0 0 0 0 0 0 0 0 0 0 0 0 0 0 0 0 0 0 0 0 0 0 0 0 0
0 0 0 0 0 0 0 0 0 0 0 0 -0 0 0 0 -0 -0 -0 -0 -0 0 0 0 0 0 0 0 0 0 0 0 0 0 0 0 0 0 0 0 0 0 0 0 0 0 0
0 0 0 0 0 0 0 0 0 0 0 0 0 0 0 0 -0 -0 -0 0 0 0 0 0 0 0 0 0 0 0 0 0 0 0 0 0 0 0 0 0 0 0 0 0 0 0 0
0 0 0 0 0 0 0 0 0 0 0 0 0 0 0 0 -0 -0 -0 0 -0 0 0 0 0 0 0 0 0 0 0 0 0 0 0 0 0 0 0 0 0 0 0 0 0 0 0
0 0 0 0 0 0 0 0 0 0 0 0 0 0 0 0 0 -0 0 -0 -0 0 0 0 0 0 -0 0 0 0 0 0 0 0 0 0 0 0 0 0 0 0 0 0 0 0 0
0 0 0 0 0 0 0 0 0 0 0 0 0 0 0 -0 -0 0 0 0 0 0 0 0 0 0 0 0 0 0 0 0 0 0 0 0 0 0 0 0 0 0 0 0 0 0 0
0 0 0 0 0 0 0 0 0 0 0 0 0 0 0 -0 0 0 0 0 0 0 0 0 0 0 0 0 0 0 0 0 0 0 0 0 0 0 0 0 0 0 0 0 0 0 0
0 0 0 0 0 0 0 0 0 0 0 0 0 0 0 -0 0 0 0 0 0 0 0 0 0 0 0 0 0 0 0 0 0 0 0 0 0 0 0 0 0 0 0 0 0 0 0
0 0 0 0 0 0 0 0 0 0 0 0 0 0 0 0 0 0 0 0 0 0 0 0 0 0 0 0 0 0 0 0 0 0 0 0 0 0 0 0 0 0 0 0 0 0 0
0 0 0 0 0 0 0 0 0 0 0 0 0 0 0 0 0 0 0 0 0 0 0 0 0 0 0 0 0 0 0 0 0 0 0 0 0 0 0 0 0 0 0 0 0 0 0
0 0 0 0 0 0 0 0 0 0 0 0 0 0 0 0 0 0 0 0 0 0 0 0 0 0 0 0 0 0 0 0 0 0 0 0 0 0 0 0 0 0 0 0 0 0 0
0 0 0 0 0 0 0 0 0 0 0 0 0 0 0 0 0 0 0 0 0 0 0 0 0 0 0 0 0 0 0 0 0 0 0 0 0 0 0 0 0 0 0 0 0 0 0
0 0 0 0 0 0 0 0 0 0 0 0 0 0 0 0 0 0 0 0 0 0 0 0 0 0 0 0 0 0 0 0 0 0 0 0 0 0 0 0 0 0 0 0 0 0 0
0 0 0 0 0 0 0 0 0 0 0 0 0 0 0 0 0 0 0 0 0 0 0 0 0 0 0 0 0 0 0 0 0 0 0 0 0 0 0 0 0 0 0 0 0 0 0
0 0 0 0 0 0 0 0 0 0 0 0 0 0 0 0 0 0 0 0 0 0 0 0 0 0 0 0 0 0 0 0 0 0 0 0 0 0 0 0 0 0 0 0 0 0 0
0 0 0 0 0 0 0 0 0 0 0 0 0 0 0 0 0 0 0 0 0 0 0 0 0 0 0 0 0 0 0 0 0 0 0 0 0 0 0 -0 0 0 0 0 0 0 0
0 0 0 0 0 0 0 0 0 0 0 0 0 0 0 0 0 0 0 0 0 0 0 0 0 0 0 0 0 0 0 0 0 0 0 0 0 0 0 0 -0 0 0 0 -0 -0 0
0 0 0 0 0 0 0 0 0 0 0 0 0 0 0 0 0 0 0 0 0 0 0 0 0 0 0 0 0 0 0 0 0 0 -0 0 0 0 0 -0 -0 -0 -0 -0 -0 -0 0
0 0 0 0 0 0 0 0 0 0 0 0 0 0 0 0 0 0 0 0 0 0 0 0 0 0 0 0 0 0 0 0 0 0 0 0 0 0 0 -0 -0 -0 -0 0 -0 0 0
0 0 0 0 0 0 0 0 0 0 0 0 0 0 0 0 0 0 0 0 0 0 0 0 0 0 0 0 0 0 0 0 0 0 0 0 0 0 -0 -0 0 -0 -0 -0 -0 -0 0
0 0 0 0 0 0 0 0 0 0 0 0 0 0 0 0 0 0 0 0 0 0 0 0 0 0 0 0 0 0 0 0 0 0 0 0 0 0 0 0 0 -0 0 0 0 0 0
0 0 0 0 0 0 0 0 0 0 0 0 0 0 0 0 0 0 0 0 0 0 0 0 0 0 0 0 0 0 0 0 0 0 0 0 0 0 0 0 0 -0 -0 0 0 -0 0
0 0 0 0 0 0 0 0 0 0 0 0 0 0 0 0 0 0 0 0 0 0 0 0 0 0 0 0 0 0 0 0 0 0 0 0 0 0 0 0 -0 0 0 0 0 0 0
0 0 0 0 0 0 0 0 0 0 0 0 0 0 0 0 0 0 0 0 0 0 0 0 0 0 0 0 0 0 0 0 0 0 0 0 0 0 0 0 0 0 -0 0 0 0 -0
0 0 0 0 0 0 0 0 0 0 0 0 0 0 0 0 0 0 0 0 0 0 0 0 0 0 0 0 0 0 0 0 0 0 0 0 0 0 0 0 0 -0 -0 -0 0 0 -0
0 0 0 0 0 0 0 0 0 0 0 0 0 0 0 0 0 0 0 0 0 0 0 0 0 0 0 0 0 0 0 0 0 0 0 0 0 0 0 0 0 -0 -0 -0 -0 -0 -0
0 0 0 0 0 0 0 0 0 0 0 0 0 0 0 0 0 0 0 0 0 0 0 0 0 0 0 0 0 0 0 0 0 0 0 0 0 0 0 0 0 0 -0 -0 -0 -0 -0
Wind_Speed_500mb
34 33 37 36 39 40 41 42 42 44 47 50 52 53 54 54 53 51 53 59 63 66 61 51 52 38 20 10 17 26 23 10 15 19 17 19 21 24 21 23 42 38 41 56 60 61 53
33 30 33 35 38 39 40 39 40 42 45 50 52 53 54 56 55 55 54 60 65 64 56 55 43 16 16 15 16 24 14 8 11 14 16 16 17 27 36 32 32 35 54 54 54 58 65
29 30 33 38 38 38 38 40 41 43 45 47 50 54 56 57 58 57 52 55 67 56 62 39 10 14 19 23 18 14 15 12 17 18 22 21 25 25 24 26 43 47 42 36 36 56 55
28 30 31 34 39 38 38 40 42 44 45 49 53 54 59 66 71 70 59 58 54 50 34 17 15 6 12 15 16 21 14 17 16 25 23 26 25 35 46 43 51 41 41 37 37 44 44
30 29 31 32 35 39 39 40 41 44 46 48 53 58 64 69 74 78 67 65 36 34 18 37 18 6 7 15 6 7 18 17 25 31 23 20 20 24 27 27 30 27 39 51 47 35 43
31 31 31 31 33 37 39 42 43 45 45 50 56 61 66 70 73 78 70 52 44 20 17 20 12 10 4 9 17 18 18 25 21 24 22 18 17 15 17 21 32 46 47 43 47 43 44
30 32 30 31 32 36 35 40 45 47 46 52 60 69 70 72 76 61 66 43 36 7 47 13 40 22 34 25 36 15 20 20 17 13 14 30 27 31 35 38 51 41 48 50 48 44 46
33 34 32 32 31 33 35 42 44 49 47 55 62 68 72 75 62 47 47 20 28 25 25 17 13 13 16 12 8 11 13 9 18 27 30 25 32 31 43 52 53 38 46 50 45 36 37
35 37 39 35 33 32 37 43 45 47 51 60 66 69 71 75 39 43 27 29 38 20 12 10 7 5 5 6 9 5 14 21 16 28 25 28 37 35 37 37 40 40 44 39 43 42 34
37 39 40 37 34 32 39 45 47 49 55 65 65 64 67 73 26 45 15 47 38 19 6 10 4 2 4 11 5 20 15 12 7 20 31 23 19 42 43 41 36 39 33 41 38 30 19
36 40 40 37 32 32 39 48 47 51 61 69 60 60 64 61 40 24 38 47 35 8 8 3 5 3 5 3 20 23 21 9 15 34 15 31 39 42 39 31 35 25 23 37 40 35 30
36 40 38 43 33 31 40 49 49 56 63 61 52 55 64 53 24 29 36 42 15 4 6 2 5 6 8 28 42 21 17 19 42 29 32 36 48 26 31 24 23 26 15 32 31 24 12
38 38 41 40 36 30 39 45 50 59 66 63 52 49 54 47 19 24 37 15 6 4 12 6 7 16 34 44 10 8 26 27 20 35 30 44 26 20 25 9 14 6 8 14 9 6 12
42 40 42 42 36 37 40 44 50 54 63 70 58 48 47 38 14 19 32 4 4 4 3 12 20 39 21 18 10 34 17 29 22 15 14 17 26 20 23 21 25 22 7 7 14 8 20
48 45 39 46 43 41 44 48 51 56 62 67 71 44 26 14 11 12 9 4 4 6 7 21 27 11 6 20 23 17 23 29 6 19 15 16 14 31 31 6 11 6 6 8 14 15 6
46 51 45 47 46 42 43 50 57 56 60 65 73 37 22 10 14 14 0 7 4 5 12 7 8 5 9 29 12 25 17 8 16 22 36 10 37 30 35 6 13 9 13 9 4 9 11
53 52 51 52 52 43 42 51 52 58 60 66 53 22 13 12 7 2 4 5 7 9 15 4 7 19 20 17 10 12 14 26 14 38 35 25 13 24 15 6 30 14 7 6 7 3 7
56 54 54 57 52 47 43 51 52 59 50 50 28 9 18 17 6 5 4 6 6 9 14 11 14 14 5 16 15 8 12 21 45 56 18 8 14 16 28 24 3 4 7 4 3 12 6
63 59 60 54 56 56 49 52 59 56 41 43 20 15 18 6 5 4 4 9 16 12 7 4 7 9 11 9 11 10 30 21 64 35 22 14 5 22 17 13 6 7 6 5 6 6 15
69 66 66 62 60 54 52 49 56 47 36 29 11 7 8 7 8 7 10 10 5 9 17 16 15 17 7 7 8 23 45 22 51 47 56 18 6 8 20 17 19 22 20 9 9 6 16
83 80 74 71 63 54 53 54 58 52 32 17 6 8 7 5 10 11 9 7 16 10 8 8 6 12 21 15 31 32 21 44 46 22 10 1 10 9 17 23 27 27 31 19 10 19 16
96 93 87 79 73 61 55 48 61 55 28 20 10 7 7 9 19 16 11 7 12 7 6 10 21 27 15 26 25 46 34 34 24 12 23 6 8 6 15 21 15 15 20 17 23 17 10
98 98 98 93 84 68 57 51 59 64 47 21 19 25 11 11 8 7 7 7 5 10 12 18 15 27 26 27 37 55 55 63 39 33 8 5 4 4 9 4 10 8 9 8 5 5 7
88 92 98 101 95 80 62 53 54 80 63 47 33 23 12 8 14 13 13 17 21 15 23 33 37 27 20 47 56 57 39 36 22 17 23 6 3 6 9 10 4 6 5 3 10 13 10
79 85 90 99 100 91 70 54 47 87 76 54 46 32 19 9 21 23 32 25 16 26 29 31 40 35 28 30 8 13 9 11 7 12 11 13 4 6 2 4 17 7 7 5 6 12 8
85 87 94 95 102 98 80 60 53 86 70 55 60 42 29 10 18 37 15 15 15 13 6 17 17 19 11 3 4 5 6 4 9 16 4 7 17 2 6 4 5 4 10 3 1 4 3
89 85 84 88 99 102 93 79 58 80 82 65 62 50 52 19 36 40 17 9 7 9 7 13 4 7 6 4 5 5 7 7 4 6 8 10 3 9 10 8 7 6 9 5 6 9 25
92 87 80 82 90 101 101 89 62 80 81 68 68 59 52 27 40 43 41 30 19 15 6 7 15 1 4 3 4 5 5 6 1 9 5 4 2 4 5 4 7 1 11 7 14 38 35
80 79 77 80 87 99 103 93 66 80 79 67 69 56 46 50 30 24 39 55 57 59 43 21 18 9 12 2 3 4 5 5 2 6 4 5 7 6 4 8 31 38 20 29 27 32 33
Wind_Direction_500mb
29 26 22 14 18 20 20 19 16 13 10 11 8 4 0 357 354 352 350 346 339 332 329 325 320 319 337 302 285 257 285 273 327 355 350 332 310 303 278 286 301 274 273 280 280 281 277
23 12 22 18 17 18 19 17 15 12 9 8 5 2 359 357 355 351 345 345 336 328 325 320 316 322 342 281 252 277 252 270 317 320 319 304 275 295 287 268 263 286 292 289 287 287 279
15 17 15 11 7 9 14 11 10 8 7 5 3 0 358 354 350 349 345 342 332 324 324 323 329 325 295 264 284 246 248 275 299 307 309 303 291 276 291 301 279 277 289 286 276 277 276
14 7 6 8 5 6 7 6 4 2 2 0 360 358 355 351 347 345 344 343 328 326 336 350 325 353 268 272 254 270 256 288 313 305 305 298 285 277 266 269 283 288 278 277 271 256 258
6 2 2 360 2 1 3 2 0 357 357 359 357 355 351 347 345 340 343 346 335 342 1 343 359 314 288 322 355 266 249 276 281 302 286 289 275 259 278 270 277 253 272 278 291 302 308
0 358 357 352 352 352 354 353 352 354 354 354 352 349 346 345 346 339 343 358 357 336 3 338 23 308 284 314 297 295 297 294 293 296 304 251 228 240 260 265 283 300 302 306 303 313 310
353 350 349 345 342 346 346 347 346 348 348 349 347 345 344 344 347 343 351 9 14 353 324 283 290 273 290 283 290 292 296 307 280 270 273 307 301 275 279 278 280 300 301 294 287 289 291
345 341 344 340 337 339 345 345 344 343 342 343 345 344 340 345 346 352 1 29 359 312 309 312 278 283 298 317 301 250 314 303 314 290 307 302 274 294 318 304 295 298 293 298 298 302 304
337 337 337 335 332 333 339 338 339 339 336 338 341 339 336 341 344 349 354 354 343 332 285 296 264 286 301 350 305 338 309 309 286 291 305 297 287 308 302 303 308 296 302 310 304 304 294
327 329 329 331 328 329 335 331 332 332 332 332 337 335 333 338 357 348 331 336 337 332 303 164 164 228 356 323 261 309 291 292 302 295 310 283 324 305 306 303 296 307 313 303 301 308 292
319 319 320 324 322 321 327 327 327 329 327 332 341 334 332 342 339 345 330 333 342 38 334 82 131 277 290 250 302 308 324 283 277 300 309 272 296 307 299 287 295 299 315 310 297 285 290
313 312 315 317 314 311 320 321 323 320 324 337 342 336 331 339 357 336 331 337 1 263 272 144 142 233 271 332 315 316 342 328 301 281 267 265 282 273 289 303 283 311 310 297 280 266 251
308 309 309 310 311 299 311 314 320 323 325 338 343 335 328 333 331 341 339 10 302 231 356 6 332 348 329 310 344 31 331 309 295 313 302 309 284 295 316 337 310 52 322 308 314 332 269
305 304 304 307 303 298 300 307 316 319 323 330 342 335 322 328 339 342 354 283 261 56 29 4 340 312 290 9 338 335 312 311 306 306 305 299 305 312 334 306 297 301 277 288 295 291 303
300 301 301 300 306 303 296 303 311 316 324 329 337 336 320 332 345 336 14 274 324 1 7 332 326 293 254 357 343 335 318 292 63 31 336 319 309 332 303 4 324 293 234 288 292 252 267
296 297 298 294 296 297 291 298 303 313 321 328 335 331 297 318 335 349 349 264 247 0 346 17 289 276 315 325 327 353 314 296 341 6 355 298 301 307 283 328 295 221 319 323 278 298 305
292 297 296 294 295 295 286 289 293 311 317 328 340 323 273 305 337 98 246 291 305 319 346 280 280 292 290 336 325 305 258 295 349 339 337 309 240 319 315 358 303 283 268 255 269 258 300
292 295 294 292 297 295 286 285 285 300 311 328 342 304 287 316 296 188 242 197 297 278 297 274 289 282 299 331 295 285 257 313 326 323 329 288 306 291 292 295 155 255 276 273 261 311 285
308 298 297 291 297 295 287 281 287 286 306 327 317 269 296 250 287 222 204 237 273 273 237 264 272 290 346 307 314 270 293 299 310 335 310 298 224 303 314 325 57 289 166 238 276 252 249
304 302 299 293 290 293 287 274 277 273 291 321 319 303 244 216 262 275 289 271 264 273 281 255 258 306 286 246 257 286 291 299 312 306 300 347 314 244 279 279 291 293 294 269 197 252 287
296 295 295 297 289 287 280 273 278 268 270 297 197 240 253 272 229 244 312 290 276 280 238 230 255 235 297 286 306 277 298 310 310 298 329 242 249 229 252 262 276 262 266 277 217 250 265
295 290 291 288 289 287 279 270 254 271 238 259 205 228 207 266 286 278 253 217 239 275 216 248 276 292 294 287 283 295 310 307 300 309 321 219 279 340 289 248 248 257 269 267 269 278 270
296 296 293 290 286 285 280 268 255 255 236 242 221 231 244 236 218 242 234 239 251 310 283 261 292 298 296 287 301 294 289 282 267 276 294 256 343 305 265 252 310 310 259 224 283 194 174
296 299 295 293 288 282 277 260 257 249 245 248 243 239 197 242 220 224 241 254 262 272 269 280 289 286 262 307 308 300 280 267 257 253 229 267 172 225 272 332 342 247 4 141 208 247 232
292 295 294 290 283 277 271 260 250 239 250 235 234 227 201 254 235 258 260 269 272 265 262 269 280 283 292 319 301 320 327 15 296 243 238 204 181 279 205 282 269 101 348 332 96 294 244
287 291 293 292 283 275 267 263 246 235 232 226 233 239 227 261 218 248 264 220 269 277 265 239 277 271 297 261 303 279 286 255 305 315 276 218 205 256 337 261 270 227 307 177 114 248 341
286 288 289 290 284 278 263 262 245 242 233 221 230 233 225 243 261 248 241 238 187 229 247 285 193 221 219 218 251 244 277 173 286 295 313 313 289 209 252 289 293 235 306 293 287 291 314
285 283 282 284 283 277 266 254 245 242 235 215 231 234 226 247 258 253 248 244 256 210 228 287 321 94 132 227 237 258 239 254 335 239 231 237 322 320 339 279 317 127 323 4 290 314 312
288 287 279 280 284 274 264 249 240 236 230 215 224 232 242 243 259 235 259 272 264 264 258 241 238 169 211 185 280 288 288 271 254 279 159 299 199 224 237 251 301 311 271 315 323 310 315
Wind_Speed_850mb
34 33 37 36 39 40 41 42 42 44 47 50 52 53 54 54 53 51 53 59 63 66 61 51 52 38 20 10 17 26 23 10 15 19 17 19 21 24 21 23 42 38 41 56 60 61 53
33 30 33 35 38 39 40 39 40 42 45 50 52 53 54 56 55 55 54 60 65 64 56 55 43 16 16 15 16 24 14 8 11 14 16 16 17 27 36 32 32 35 54 54 54 58 65
29 30 33 38 38 38 38 40 41 43 45 47 50 54 56 57 58 57 52 55 67 56 62 39 10 14 19 23 18 14 15 12 17 18 22 21 25 25 24 26 43 47 42 36 36 56 55
28 30 31 34 39 38 38 40 42 44 45 49 53 54 59 66 71 70 59 58 54 50 34 17 15 6 12 15 16 21 14 17 16 25 23 26 25 35 46 43 51 41 41 37 37 44 44
30 29 31 32 35 39 39 40 41 44 46 48 53 58 64 69 74 78 67 65 36 34 18 37 18 6 7 15 6 7 18 17 25 31 23 20 20 24 27 27 30 27 39 51 47 35 43
31 31 31 31 33 37 39 42 43 45 45 50 56 61 66 70 73 78 70 52 44 20 17 20 12 10 4 9 17 18 18 25 21 24 22 18 17 15 17 21 32 46 47 43 47 43 44
30 32 30 31 32 36 35 40 45 47 46 52 60 69 70 72 76 61 66 43 36 7 47 13 40 22 34 25 36 15 20 20 17 13 14 30 27 31 35 38 51 41 48 50 48 44 46
33 34 32 32 31 33 35 42 44 49 47 55 62 68 72 75 62 47 47 20 28 25 25 17 13 13 16 12 8 11 13 9 18 27 30 25 32 31 43 52 53 38 46 50 45 36 37
35 37 39 35 33 32 37 43 45 47 51 60 66 69 71 75 39 43 27 29 38 20 12 10 7 5 5 6 9 5 14 21 16 28 25 28 37 35 37 37 40 40 44 39 43 42 34
37 39 40 37 34 32 39 45 47 49 55 65 65 64 67 73 26 45 15 47 38 19 6 10 4 2 4 11 5 20 15 12 7 20 31 23 19 42 43 41 36 39 33 41 38 30 19
36 40 40 37 32 32 39 48 47 51 61 69 60 60 64 61 40 24 38 47 35 8 8 3 5 3 5 3 20 23 21 9 15 34 15 31 39 42 39 31 35 25 23 37 40 35 30
36 40 38 43 33 31 40 49 49 56 63 61 52 55 64 53 24 29 36 42 15 4 6 2 5 6 8 28 42 21 17 19 42 29 32 36 48 26 31 24 23 26 15 32 31 24 12
38 38 41 40 36 30 39 45 50 59 66 63 52 49 54 47 19 24 37 15 6 4 12 6 7 16 34 44 10 8 26 27 20 35 30 44 26 20 25 9 14 6 8 14 9 6 12
42 40 42 42 36 37 40 44 50 54 63 70 58 48 47 38 14 19 32 4 4 4 3 12 20 39 21 18 10 34 17 29 22 15 14 17 26 20 23 21 25 22 7 7 14 8 20
48 45 39 46 43 41 44 48 51 56 62 67 71 44 26 14 11 12 9 4 4 6 7 21 27 11 6 20 23 17 23 29 6 19 15 16 14 31 31 6 11 6 6 8 14 15 6
46 51 45 47 46 42 43 50 57 56 60 65 73 37 22 10 14 14 0 7 4 5 12 7 8 5 9 29 12 25 17 8 16 22 36 10 37 30 35 6 13 9 13 9 4 9 11
53 52 51 52 52 43 42 51 52 58 60 66 53 22 13 12 7 2 4 5 7 9 15 4 7 19 20 17 10 12 14 26 14 38 35 25 13 24 15 6 30 14 7 6 7 3 7
56 54 54 57 52 47 43 51 52 59 50 50 28 9 18 17 6 5 4 6 6 9 14 11 14 14 5 16 15 8 12 21 45 56 18 8 14 16 28 24 3 4 7 4 3 12 6
63 59 60 54 56 56 49 52 59 56 41 43 20 15 18 6 5 4 4 9 16 12 7 4 7 9 11 9 11 10 30 21 64 35 22 14 5 22 17 13 6 7 6 5 6 6 15
69 66 66 62 60 54 52 49 56 47 36 29 11 7 8 7 8 7 10 10 5 9 17 16 15 17 7 7 8 23 45 22 51 47 56 18 6 8 20 17 19 22 20 9 9 6 16
83 80 74 71 63 54 53 54 58 52 32 17 6 8 7 5 10 11 9 7 16 10 8 8 6 12 21 15 31 32 21 44 46 22 10 1 10 9 17 23 27 27 31 19 10 19 16
96 93 87 79 73 61 55 48 61 55 28 20 10 7 7 9 19 16 11 7 12 7 6 10 21 27 15 26 25 46 34 34 24 12 23 6 8 6 15 21 15 15 20 17 23 17 10
98 98 98 93 84 68 57 51 59 64 47 21 19 25 11 11 8 7 7 7 5 10 12 18 15 27 26 27 37 55 55 63 39 33 8 5 4 4 9 4 10 8 9 8 5 5 7
88 92 98 101 95 80 62 53 54 80 63 47 33 23 12 8 14 13 13 17 21 15 23 33 37 27 20 47 56 57 39 36 22 17 23 6 3 6 9 10 4 6 5 3 10 13 10
79 85 90 99 100 91 70 54 47 87 76 54 46 32 19 9 21 23 32 25 16 26 29 31 40 35 28 30 8 13 9 11 7 12 11 13 4 6 2 4 17 7 7 5 6 12 8
85 87 94 95 102 98 80 60 53 86 70 55 60 42 29 10 18 37 15 15 15 13 6 17 17 19 11 3 4 5 6 4 9 16 4 7 17 2 6 4 5 4 10 3 1 4 3
89 85 84 88 99 102 93 79 58 80 82 65 62 50 52 19 36 40 17 9 7 9 7 13 4 7 6 4 5 5 7 7 4 6 8 10 3 9 10 8 7 6 9 5 6 9 25
92 87 80 82 90 101 101 89 62 80 81 68 68 59 52 27 40 43 41 30 19 15 6 7 15 1 4 3 4 5 5 6 1 9 5 4 2 4 5 4 7 1 11 7 14 38 35
80 79 77 80 87 99 103 93 66 80 79 67 69 56 46 50 30 24 39 55 57 59 43 21 18 9 12 2 3 4 5 5 2 6 4 5 7 6 4 8 31 38 20 29 27 32 33
Wind_Direction_850mb
29 26 22 14 18 20 20 19 16 13 10 11 8 4 0 357 354 352 350 346 339 332 329 325 320 319 337 302 285 257 285 273 327 355 350 332 310 303 278 286 301 274 273 280 280 281 277
23 12 22 18 17 18 19 17 15 12 9 8 5 2 359 357 355 351 345 345 336 328 325 320 316 322 342 281 252 277 252 270 317 320 319 304 275 295 287 268 263 286 292 289 287 287 279
15 17 15 11 7 9 14 11 10 8 7 5 3 0 358 354 350 349 345 342 332 324 324 323 329 325 295 264 284 246 248 275 299 307 309 303 291 276 291 301 279 277 289 286 276 277 276
14 7 6 8 5 6 7 6 4 2 2 0 360 358 355 351 347 345 344 343 328 326 336 350 325 353 268 272 254 270 256 288 313 305 305 298 285 277 266 269 283 288 278 277 271 256 258
6 2 2 360 2 1 3 2 0 357 357 359 357 355 351 347 345 340 343 346 335 342 1 343 359 314 288 322 355 266 249 276 281 302 286 289 275 259 278 270 277 253 272 278 291 302 308
0 358 357 352 352 352 354 353 352 354 354 354 352 349 346 345 346 339 343 358 357 336 3 338 23 308 284 314 297 295 297 294 293 296 304 251 228 240 260 265 283 300 302 306 303 313 310
353 350 349 345 342 346 346 347 346 348 348 349 347 345 344 344 347 343 351 9 14 353 324 283 290 273 290 283 290 292 296 307 280 270 273 307 301 275 279 278 280 300 301 294 287 289 291
345 341 344 340 337 339 345 345 344 343 342 343 345 344 340 345 346 352 1 29 359 312 309 312 278 283 298 317 301 250 314 303 314 290 307 302 274 294 318 304 295 298 293 298 298 302 304
337 337 337 335 332 333 339 338 339 339 336 338 341 339 336 341 344 349 354 354 343 332 285 296 264 286 301 350 305 338 309 309 286 291 305 297 287 308 302 303 308 296 302 310 304 304 294
327 329 329 331 328 329 335 331 332 332 332 332 337 335 333 338 357 348 331 336 337 332 303 164 164 228 356 323 261 309 291 292 302 295 310 283 324 305 306 303 296 307 313 303 301 308 292
319 319 320 324 322 321 327 327 327 329 327 332 341 334 332 342 339 345 330 333 342 38 334 82 131 277 290 250 302 308 324 283 277 300 309 272 296 307 299 287 295 299 315 310 297 285 290
313 312 315 317 314 311 320 321 323 320 324 337 342 336 331 339 357 336 331 337 1 263 272 144 142 233 271 332 315 316 342 328 301 281 267 265 282 273 289 303 283 311 310 297 280 266 251
308 309 309 310 311 299 311 314 320 323 325 338 343 335 328 333 331 341 339 10 302 231 356 6 332 348 329 310 344 31 331 309 295 313 302 309 284 295 316 337 310 52 322 308 314 332 269
305 304 304 307 303 298 300 307 316 319 323 330 342 335 322 328 339 342 354 283 261 56 29 4 340 312 290 9 338 335 312 311 306 306 305 299 305 312 334 306 297 301 277 288 295 291 303
300 301 301 300 306 303 296 303 311 316 324 329 337 336 320 332 345 336 14 274 324 1 7 332 326 293 254 357 343 335 318 292 63 31 336 319 309 332 303 4 324 293 234 288 292 252 267
296 297 298 294 296 297 291 298 303 313 321 328 335 331 297 318 335 349 349 264 247 0 346 17 289 276 315 325 327 353 314 296 341 6 355 298 301 307 283 328 295 221 319 323 278 298 305
292 297 296 294 295 295 286 289 293 311 317 328 340 323 273 305 337 98 246 291 305 319 346 280 280 292 290 336 325 305 258 295 349 339 337 309 240 319 315 358 303 283 268 255 269 258 300
292 295 294 292 297 295 286 285 285 300 311 328 342 304 287 316 296 188 242 197 297 278 297 274 289 282 299 331 295 285 257 313 326 323 329 288 306 291 292 295 155 255 276 273 261 311 285
308 298 297 291 297 295 287 281 287 286 306 327 317 269 296 250 287 222 204 237 273 273 237 264 272 290 346 307 314 270 293 299 310 335 310 298 224 303 314 325 57 289 166 238 276 252 249
304 302 299 293 290 293 287 274 277 273 291 321 319 303 244 216 262 275 289 271 264 273 281 255 258 306 286 246 257 286 291 299 312 306 300 347 314 244 279 279 291 293 294 269 197 252 287
296 295 295 297 289 287 280 273 278 268 270 297 197 240 253 272 229 244 312 290 276 280 238 230 255 235 297 286 306 277 298 310 310 298 329 242 249 229 252 262 276 262 266 277 217 250 265
295 290 291 288 289 287 279 270 254 271 238 259 205 228 207 266 286 278 253 217 239 275 216 248 276 292 294 287 283 295 310 307 300 309 321 219 279 340 289 248 248 257 269 267 269 278 270
296 296 293 290 286 285 280 268 255 255 236 242 221 231 244 236 218 242 234 239 251 310 283 261 292 298 296 287 301 294 289 282 267 276 294 256 343 305 265 252 310 310 259 224 283 194 174
296 299 295 293 288 282 277 260 257 249 245 248 243 239 197 242 220 224 241 254 262 272 269 280 289 286 262 307 308 300 280 267 257 253 229 267 172 225 272 332 342 247 4 141 208 247 232
292 295 294 290 283 277 271 260 250 239 250 235 234 227 201 254 235 258 260 269 272 265 262 269 280 283 292 319 301 320 327 15 296 243 238 204 181 279 205 282 269 101 348 332 96 294 244
287 291 293 292 283 275 267 263 246 235 232 226 233 239 227 261 218 248 264 220 269 277 265 239 277 271 297 261 303 279 286 255 305 315 276 218 205 256 337 261 270 227 307 177 114 248 341
286 288 289 290 284 278 263 262 245 242 233 221 230 233 225 243 261 248 241 238 187 229 247 285 193 221 219 218 251 244 277 173 286 295 313 313 289 209 252 289 293 235 306 293 287 291 314
285 283 282 284 283 277 266 254 245 242 235 215 231 234 226 247 258 253 248 244 256 210 228 287 321 94 132 227 237 258 239 254 335 239 231 237 322 320 339 279 317 127 323 4 290 314 312
288 287 279 280 284 274 264 249 240 236 230 215 224 232 242 243 259 235 259 272 264 264 258 241 238 169 211 185 280 288 288 271 254 279 159 299 199 224 237 251 301 311 271 315 323 310 315